FW3667 Weather Reports


time (UTC)temp
C
wind
direction
speed
KPH
gust
KPH
rain 1hr
cm
rain 24hr
cm
rain mn
cm
humidity
%
barometer
mb
20260906144609 34 348 0.0 0.0 0.00 0.00 0.00 55 1009.0
20260906143101 33 38 0.0 0.0 0.00 0.00 0.00 58 1009.1
20260906141550 33 261 0.0 0.0 0.00 0.00 0.00 59 1009.1
20260906140043 31 226 0.0 0.0 0.00 0.00 0.00 64 1009.1
20260906134536 30 1 0.0 0.0 0.00 0.00 0.00 67 1008.9
20260906133033 27 346 0.0 0.0 0.00 0.00 0.00 77 1008.9
20260906131526 24 346 0.0 0.0 0.00 0.00 0.00 87 1009.1
20260906130022 23 346 0.0 0.0 0.00 0.00 0.00 90 1008.8
20260906124521 22 346 0.0 0.0 0.00 0.00 0.00 92 1008.8
20260906123015 21 346 0.0 0.0 0.00 0.00 0.00 92 1008.6
20260906121510 21 344 0.0 0.0 0.00 0.00 0.00 91 1008.4
20260906120010 21 344 0.0 0.0 0.00 0.00 0.00 90 1008.3
20260906114520 21 344 0.0 0.0 0.00 0.00 0.00 90 1008.3
20260906113007 22 344 0.0 0.0 0.00 0.00 0.00 90 1008.0
20260906111534 22 344 0.0 0.0 0.00 0.00 0.00 89 1007.9
20260906110028 22 353 0.0 0.0 0.00 0.00 0.00 90 1007.8
20260906104532 21 353 0.0 0.0 0.00 0.00 0.00 90 1007.8
20260906103020 21 353 0.0 0.0 0.00 0.00 0.00 91 1007.8
20260906101517 21 140 0.0 0.0 0.00 0.00 0.00 91 1007.4
20260906100015 21 140 0.0 0.0 0.00 0.00 0.00 90 1007.3
20260906094533 21 140 0.0 0.0 0.00 0.00 0.00 90 1007.2
20260906093017 21 140 0.0 0.0 0.00 0.00 0.00 90 1007.2
20260906091508 21 140 0.0 0.0 0.00 0.00 0.00 90 1007.2
20260906090013 21 140 0.0 0.0 0.00 0.00 0.00 89 1007.2
20260906084510 22 140 0.0 0.0 0.00 0.00 0.00 89 1007.2
20260906084508 21 140 0.0 0.0 0.00 0.00 0.00 89 1007.2
20260906083051 22 140 0.0 0.0 0.00 0.00 0.00 89 1007.2
20260906081550 22 140 0.0 0.0 0.00 0.00 0.00 88 1007.1
20260906080150 22 140 0.0 0.0 0.00 0.00 0.00 88 1007.3
20260906074533 22 140 0.0 0.0 0.00 0.00 0.00 87 1007.5
20260906073029 22 140 0.0 0.0 0.00 0.00 0.00 87 1007.6
20260906071530 22 140 0.0 0.0 0.00 0.00 0.00 87 1007.6
20260906070025 22 140 0.0 0.0 0.00 0.00 0.00 86 1007.6
20260906064524 22 140 0.0 0.0 0.00 0.00 0.00 86 1007.6
20260906063024 22 140 0.0 0.0 0.00 0.00 0.00 85 1007.6
20260906061527 23 140 0.0 0.0 0.00 0.00 0.00 85 1007.7
20260906060021 23 140 0.0 0.0 0.00 0.00 0.00 83 1007.5
20260906054521 23 140 0.0 0.0 0.00 0.00 0.00 83 1007.7
20260906053020 23 140 0.0 0.0 0.00 0.00 0.00 82 1007.5
20260906051520 23 140 0.0 0.0 0.00 0.00 0.00 81 1007.5
20260906050057 23 140 0.0 0.0 0.00 0.00 0.00 81 1007.5
20260906044555 24 140 0.0 0.0 0.00 0.00 0.00 80 1007.3
20260906043047 24 140 0.0 0.0 0.00 0.00 0.00 80 1007.3
20260906041547 24 140 0.0 0.0 0.00 0.00 0.00 79 1007.5
20260906040054 24 140 0.0 0.0 0.00 0.00 0.00 78 1007.4
20260906034546 25 140 0.0 0.0 0.00 0.00 0.00 77 1007.4
20260906033015 25 140 0.0 0.0 0.00 0.00 0.00 77 1007.5
20260906031514 25 140 0.0 0.0 0.00 0.00 0.00 77 1007.4
20260906030012 25 140 0.0 0.0 0.00 0.00 0.00 76 1007.5
20260906024530 25 140 0.0 0.0 0.00 0.00 0.00 75 1007.3
20260906023018 26 140 0.0 0.0 0.00 0.00 0.00 74 1007.0
20260906021512 26 140 0.0 0.0 0.00 0.00 0.00 72 1007.0
20260906020009 27 140 0.0 0.0 0.00 0.00 0.00 71 1006.7
20260906014511 27 140 0.0 0.0 0.00 0.00 0.00 67 1006.5
20260906013022 28 140 0.0 0.0 0.00 0.00 0.00 65 1006.4
20260906011508 28 305 0.0 0.0 0.00 0.00 0.00 64 1005.9
20260906010037 30 305 0.0 0.0 0.00 0.00 0.00 61 1005.9
20260906004536 31 305 0.0 0.0 0.00 0.00 0.00 56 1005.6
20260906003034 31 305 0.0 0.0 0.00 0.00 0.00 53 1005.7
20260906001534 32 41 0.0 0.0 0.00 0.00 0.00 49 1005.7
20260906000037 33 355 0.0 0.0 0.00 0.00 0.00 47 1005.8
20260905234535 34 355 0.0 0.0 0.00 0.00 0.00 45 1005.8
20260905233031 35 277 0.0 0.0 0.00 0.00 0.00 42 1005.8
20260905231530 36 277 0.0 0.0 0.00 0.00 0.00 40 1005.7
20260905230029 36 291 0.0 0.0 0.00 0.00 0.00 39 1005.5
20260905224528 37 343 0.0 0.0 0.00 0.00 0.00 38 1005.5
20260905223025 40 332 0.0 0.0 0.00 0.00 0.00 33 1005.3
20260905221524 41 206 0.0 0.0 0.00 0.00 0.00 31 1005.3
20260905220022 41 207 0.0 0.0 0.00 0.00 0.00 31 1005.4
20260905214525 41 355 0.0 0.0 0.00 0.00 0.00 30 1005.5
20260905213059 40 283 0.0 0.0 0.00 0.00 0.00 33 1005.5
20260905211548 40 16 0.0 0.0 0.00 0.00 0.00 33 1005.8
20260905210051 40 351 0.0 0.0 0.00 0.00 0.00 32 1005.9
20260905204545 40 21 0.0 0.0 0.00 0.00 0.00 33 1006.1
20260905203042 40 300 0.0 0.0 0.00 0.00 0.00 32 1006.3
20260905201541 40 310 0.0 0.0 0.00 0.00 0.00 32 1006.6
20260905200038 40 137 0.0 0.0 0.00 0.00 0.00 32 1006.9
20260905194529 41 12 0.0 0.0 0.00 0.00 0.00 34 1007.0
20260905193025 40 92 0.0 0.0 0.00 0.00 0.00 34 1007.1
20260905191524 40 326 0.0 0.0 0.00 0.00 0.00 34 1007.5
20260905190022 39 218 0.0 0.0 0.00 0.00 0.00 36 1007.6
20260905184553 40 3 0.0 0.0 0.00 0.00 0.00 34 1007.7
20260905183047 39 203 0.0 0.0 0.00 0.00 0.00 36 1008.0
20260905181554 40 115 0.0 0.0 0.00 0.00 0.00 35 1008.1
20260905180042 38 303 0.0 0.0 0.00 0.00 0.00 37 1008.3
20260905174539 39 271 0.0 0.0 0.00 0.00 0.00 36 1008.5
20260905173035 38 215 0.0 0.0 0.00 0.00 0.00 39 1008.7
20260905171533 38 332 0.0 0.0 0.00 0.00 0.00 40 1008.9
20260905170030 36 130 0.0 0.0 0.00 0.00 0.00 43 1009.0
20260905164529 36 23 0.0 0.0 0.00 0.00 0.00 42 1009.3
20260905163033 37 31 0.0 0.0 0.00 0.00 0.00 43 1009.3
20260905161522 36 199 0.0 0.0 0.00 0.00 0.00 48 1009.4
20260905160019 35 355 0.0 0.0 0.00 0.00 0.00 49 1009.5
20260905154515 34 334 0.0 0.0 0.00 0.00 0.00 51 1009.4
20260905153015 34 345 0.0 0.0 0.00 0.00 0.00 53 1009.5
20260905151512 33 2 0.0 0.0 0.00 0.00 0.00 56 1009.6